{"data":{"norad_id":64416,"epoch":"2026-05-25T05:08:22.642080Z","epoch_age_seconds":46627,"freshness":"FRESH","line1":"1 64416U 25129E   26145.21415095  .00003382  00000+0  29102-3 0  9997","line2":"2 64416  70.0005 241.3631 0003484 269.3427  90.7333 14.98338096 52752","mean_motion":14.98338096,"eccentricity":0.0003484,"inclination_deg":70.0005,"raan_deg":241.3631,"arg_perigee_deg":269.3427,"mean_anomaly_deg":90.7333,"bstar":0.00029102,"rev_number":5275,"period_min":96.106479828836,"perigee_km":569.60941636436,"apogee_km":574.45229332562,"semimajor_km":6950.167854845,"source":"CELESTRAK","updated_at":"2026-05-25T13:38:20.417616Z"}}